Location: Newark
(45.2500°N, 7.5833°E)
Time: 20:08:17
(UTC+00:00)

A-11 Canister half - Pass Details

Date: 31 January 2020
Orbit: 1525 x 1684 km, 47.3° (Epoch: 17 February)

Event Time Altitude Azimuth Distance (km) Brightness Sun altitude
Rises 14:04:00 0° 204° (SSW) 4,666 13.0 19.6°
Reaches altitude 10° 14:07:22 10° 196° (SSW) 3,681 12.6 19.3°
Maximum altitude 14:15:23 34° 135° (SE) 2,304 10.2 18.4°
Drops below altitude 10° 14:23:27 10° 75° (ENE) 3,727 10.6 17.5°
Sets 14:26:53 0° 67° (ENE) 4,730 11.0 17.1°
